TimePDT,TemperatureF,Dew PointF,Humidity,Sea Level PressureIn,VisibilityMPH,Wind Direction,Wind SpeedMPH,Gust SpeedMPH,PrecipitationIn,Events,Conditions,WindDirDegrees,DateUTC
12:10 AM,48.2,28.4,46,30.36,10.0,South,5.8,-,N/A,,Clear,180,2013-05-12 07:10:00
12:30 AM,48.2,28.4,46,30.36,10.0,SSW,8.1,-,N/A,,Clear,200,2013-05-12 07:30:00
12:50 AM,48.2,28.4,46,30.36,10.0,South,6.9,-,N/A,,Clear,190,2013-05-12 07:50:00
1:10 AM,46.4,28.4,50,30.36,10.0,SSE,5.8,-,N/A,,Clear,150,2013-05-12 08:10:00
1:30 AM,48.2,28.4,46,30.36,10.0,South,6.9,-,N/A,,Clear,180,2013-05-12 08:30:00
1:50 AM,48.2,26.6,43,30.36,10.0,SSW,6.9,-,N/A,,Clear,200,2013-05-12 08:50:00
2:10 AM,48.2,26.6,43,30.36,10.0,SSW,8.1,-,N/A,,Clear,200,2013-05-12 09:10:00
2:30 AM,46.4,28.4,50,30.36,10.0,South,6.9,-,N/A,,Clear,180,2013-05-12 09:30:00
2:50 AM,42.8,28.4,57,30.36,10.0,South,6.9,-,N/A,,Clear,190,2013-05-12 09:50:00
3:10 AM,44.6,28.4,53,30.35,10.0,South,6.9,-,N/A,,Clear,190,2013-05-12 10:10:00
3:30 AM,42.8,28.4,57,30.36,10.0,South,6.9,-,N/A,,Clear,180,2013-05-12 10:30:00
3:50 AM,44.6,26.6,49,30.36,10.0,SSW,5.8,-,N/A,,Clear,200,2013-05-12 10:50:00
4:10 AM,44.6,28.4,53,30.36,10.0,South,8.1,-,N/A,,Clear,190,2013-05-12 11:10:00
4:30 AM,41.0,28.4,61,30.35,10.0,SSW,6.9,-,N/A,,Clear,200,2013-05-12 11:30:00
4:50 AM,44.6,26.6,49,30.35,10.0,South,6.9,-,N/A,,Clear,190,2013-05-12 11:50:00
5:10 AM,42.8,28.4,57,30.35,10.0,SSW,8.1,-,N/A,,Clear,200,2013-05-12 12:10:00
5:30 AM,44.6,26.6,49,30.36,10.0,SSW,8.1,-,N/A,,Clear,210,2013-05-12 12:30:00
5:50 AM,44.6,26.6,49,30.36,10.0,SSW,6.9,-,N/A,,Clear,210,2013-05-12 12:50:00
6:10 AM,44.6,26.6,49,30.37,10.0,SSW,8.1,-,N/A,,Clear,210,2013-05-12 13:10:00
6:30 AM,46.4,28.4,50,30.37,10.0,SSW,6.9,-,N/A,,Clear,200,2013-05-12 13:30:00
6:50 AM,50.0,28.4,43,30.38,10.0,SW,6.9,-,N/A,,Clear,220,2013-05-12 13:50:00
7:10 AM,53.6,28.4,38,30.38,10.0,SW,5.8,-,N/A,,Clear,220,2013-05-12 14:10:00
7:30 AM,57.2,28.4,33,30.38,10.0,Calm,Calm,-,N/A,,Clear,0,2013-05-12 14:30:00
7:50 AM,60.8,30.2,31,30.38,10.0,Calm,Calm,-,N/A,,Clear,0,2013-05-12 14:50:00
8:10 AM,64.4,30.2,28,30.38,10.0,Calm,Calm,-,N/A,,Clear,0,2013-05-12 15:10:00
8:30 AM,66.2,30.2,26,30.38,10.0,Calm,Calm,-,N/A,,Clear,0,2013-05-12 15:30:00
8:50 AM,68.0,32.0,26,30.38,10.0,Calm,Calm,-,N/A,,Clear,0,2013-05-12 15:50:00
9:10 AM,69.8,30.2,23,30.38,10.0,Calm,Calm,-,N/A,,Clear,0,2013-05-12 16:10:00
9:30 AM,71.6,28.4,20,30.37,10.0,WSW,3.5,-,N/A,,Clear,250,2013-05-12 16:30:00
9:50 AM,73.4,26.6,18,30.37,10.0,Calm,Calm,-,N/A,,Clear,0,2013-05-12 16:50:00
10:10 AM,75.2,26.6,17,30.37,10.0,Calm,Calm,-,N/A,,Clear,0,2013-05-12 17:10:00
10:30 AM,77.0,24.8,14,30.37,10.0,ENE,3.5,-,N/A,,Clear,70,2013-05-12 17:30:00
10:50 AM,77.0,23.0,13,30.36,10.0,WSW,5.8,-,N/A,,Clear,250,2013-05-12 17:50:00
11:10 AM,80.6,24.8,13,30.36,10.0,NW,6.9,-,N/A,,Clear,310,2013-05-12 18:10:00
11:30 AM,80.6,24.8,13,30.36,10.0,East,3.5,-,N/A,,Clear,100,2013-05-12 18:30:00
11:50 AM,80.6,24.8,13,30.35,10.0,SSE,3.5,-,N/A,,Clear,160,2013-05-12 18:50:00
12:10 PM,80.6,24.8,13,30.34,10.0,ENE,4.6,-,N/A,,Clear,70,2013-05-12 19:10:00
12:30 PM,80.6,23.0,12,30.34,10.0,ENE,6.9,-,N/A,,Clear,60,2013-05-12 19:30:00
12:50 PM,80.6,23.0,12,30.33,10.0,Calm,Calm,-,N/A,,Clear,0,2013-05-12 19:50:00
1:05 PM,80.6,23.0,12,30.33,10.0,NE,3.5,-,N/A,,Clear,40,2013-05-12 20:05:00
1:30 PM,82.4,23.0,11,30.32,10.0,East,8.1,-,N/A,,Clear,90,2013-05-12 20:30:00
1:50 PM,82.4,23.0,11,30.31,10.0,East,6.9,-,N/A,,Clear,90,2013-05-12 20:50:00
2:10 PM,82.4,23.0,11,30.30,10.0,ESE,8.1,-,N/A,,Clear,110,2013-05-12 21:10:00
2:30 PM,82.4,23.0,11,30.30,10.0,North,4.6,-,N/A,,Clear,10,2013-05-12 21:30:00
2:50 PM,82.4,23.0,11,30.29,10.0,ESE,5.8,-,N/A,,Clear,110,2013-05-12 21:50:00
3:10 PM,84.2,23.0,11,30.28,10.0,East,9.2,-,N/A,,Clear,100,2013-05-12 22:10:00
3:30 PM,84.2,24.8,11,30.27,10.0,East,8.1,-,N/A,,Clear,100,2013-05-12 22:30:00
3:50 PM,84.2,24.8,11,30.26,10.0,ENE,6.9,-,N/A,,Clear,60,2013-05-12 22:50:00
4:10 PM,84.2,23.0,11,30.26,10.0,North,9.2,16.1,N/A,,Clear,360,2013-05-12 23:10:00
4:25 PM,82.4,23.0,11,30.25,10.0,NE,8.1,-,N/A,,Clear,50,2013-05-12 23:25:00
4:50 PM,82.4,23.0,11,30.24,10.0,ESE,5.8,-,N/A,,Clear,120,2013-05-12 23:50:00
5:10 PM,82.4,23.0,11,30.24,10.0,ENE,5.8,-,N/A,,Clear,60,2013-05-13 00:10:00
5:30 PM,82.4,23.0,11,30.23,10.0,North,8.1,-,N/A,,Clear,360,2013-05-13 00:30:00
5:50 PM,82.4,23.0,11,30.23,10.0,North,10.4,-,N/A,,Clear,360,2013-05-13 00:50:00
6:10 PM,80.6,23.0,12,30.22,10.0,ENE,4.6,-,N/A,,Clear,60,2013-05-13 01:10:00
6:30 PM,80.6,21.2,11,30.22,10.0,Calm,Calm,-,N/A,,Clear,0,2013-05-13 01:30:00
6:50 PM,77.0,24.8,14,30.22,10.0,North,6.9,-,N/A,,Clear,360,2013-05-13 01:50:00
7:10 PM,75.2,32.0,21,30.22,10.0,North,6.9,-,N/A,,Clear,10,2013-05-13 02:10:00
7:30 PM,71.6,32.0,23,30.22,10.0,NE,4.6,-,N/A,,Clear,40,2013-05-13 02:30:00
7:50 PM,66.2,28.4,24,30.23,10.0,Calm,Calm,-,N/A,,Clear,0,2013-05-13 02:50:00
8:10 PM,66.2,26.6,23,30.23,10.0,North,4.6,-,N/A,,Clear,350,2013-05-13 03:10:00
8:30 PM,66.2,28.4,24,30.24,10.0,Calm,Calm,-,N/A,,Clear,0,2013-05-13 03:30:00
8:50 PM,60.8,32.0,34,30.24,10.0,South,6.9,-,N/A,,Clear,180,2013-05-13 03:50:00
9:10 PM,57.2,32.0,38,30.26,10.0,Calm,Calm,-,N/A,,Clear,0,2013-05-13 04:10:00
9:30 PM,55.4,32.0,41,30.26,10.0,South,5.8,-,N/A,,Clear,170,2013-05-13 04:30:00
9:50 PM,55.4,28.4,36,30.27,10.0,South,5.8,-,N/A,,Clear,180,2013-05-13 04:50:00
10:10 PM,55.4,30.2,38,30.27,10.0,Calm,Calm,-,N/A,,Clear,0,2013-05-13 05:10:00
10:30 PM,53.6,30.2,41,30.27,10.0,Calm,Calm,-,N/A,,Clear,0,2013-05-13 05:30:00
10:50 PM,50.0,28.4,43,30.28,10.0,Calm,Calm,-,N/A,,Clear,0,2013-05-13 05:50:00
11:10 PM,50.0,30.2,47,30.27,10.0,Calm,Calm,-,N/A,,Clear,0,2013-05-13 06:10:00
11:30 PM,50.0,28.4,43,30.27,10.0,Calm,Calm,-,N/A,,Clear,0,2013-05-13 06:30:00
11:50 PM,48.2,28.4,46,30.27,10.0,South,4.6,-,N/A,,Clear,190,2013-05-13 06:50:00